Location: College Rock
(37.2713°N, 119.1740°W)
Time: 04:00:47
(UTC+00:00)

Cosmos 2082 Rocket - Pass Details

Date: 29 October 2020
Orbit: 833 x 854 km, 71.0° (Epoch: 23 November)

Event Time Altitude Azimuth Distance (km) Brightness Sun altitude
Exits shadow 13:51:48 - 269° (W) 2,769 4.2 -6.0°
Reaches altitude 10° 13:53:29 10° 283° (WNW) 2,442 3.9 -5.7°
Maximum altitude 13:55:57 13° 310° (NW) 2,245 3.9 -5.2°
Drops below altitude 10° 13:58:25 10° 336° (NNW) 2,450 4.3 -4.8°
Sets 14:02:26 0° 4° (N) 3,392 5.2 -4.0°
